Weather in Dehradun

India     30°19′52″N   78°02′27″E
temp.,
°C
wind,
m/s
gust,
m/s
humid.,
%
clouds,
%
prec.,
mm/h
press.,
hPa
HPBL,
m
19 may, wed
wed1923:30+23n127299 2.3 100737
02:30+23wnw0068100 0.0 100512
05:30+20ese2488100 4.6 1007202
08:30+22se1278100 0.9 1008108
11:30+20ese0187100 2.6 1008216
14:30+20ese1190100 2.1 1006221
17:30+20n1291100 5.4 1004115
20:30+19ese1194100 3.4 100596
20 may, thu
thu2023:30+19n1194100 6.9 100575
02:30+19ssw1196100 8.5 100391
05:30+19ene2592100 22.6 1003290
08:30+20ese1290100 6.4 1005142
11:30+19nw1295100 12.3 1006186
14:30+19n2693100 7.3 1005256
17:30+18ne5989100 30.8 1005256
20:30+18e2283100 0.3 100734
21 may, fri
fri2123:30+19ne228025 0.3 100718
02:30+18ne22790 0.0 100619
05:30+18ne22750 0.0 100716
08:30+26se11490 0.0 1007348
11:30+31wsw21360 0.0 10071205
14:30+32w65315 0.0 10061960
17:30+30w23401 0.0 1004370
20:30+24nne22580 0.0 100526
22 may, sat
sat2223:30+23ne225242 0.0 100519
02:30+22nne225320 0.0 100422
05:30+21nne224873 0.0 100416
08:30+29nne122957 0.0 1005356
11:30+34w342623 0.0 10041613
14:30+35w442435 0.0 10022543
17:30+33w34330 0.0 10011105
20:30+27nne22480 0.0 100218
23 may, sun
sun2323:30+25ne32510 0.0 100331
02:30+24ne22522 0.0 100227
05:30+23nne224869 0.0 100323
08:30+29wsw3233100 0.0 1005556
11:30+36w122292 0.0 10031383
14:30+36w751832 0.0 10023541
17:30+33w572625 0.0 10021405
20:30+26ne22394 0.0 100317